User: anonymous   Login
Location: Eaton
(41.3139°N, 82.0207°W)
Time: 09:50:00
(UTC+00:00)
Language:

COSMOS 2406 - Orbit

View from above orbital plane
View from above orbital plane
View from above satellite
View from above satellite

Ground track
Ground track

The orbit data is extracted from the following two-line orbital elements,

1 28352U 04021A   21264.88343841  .00000002  00000-0  27086-4 0  9990
2 28352  70.9989 111.9650 0015634 270.3063  89.6267 14.11686916890634
Epoch (UTC): 21 September 2021 21:12:09
Eccentricity: 0.0015634
inclination: 70.9989°
perigee height: 842 km
apogee height: 865 km
right ascension of ascending node: 111.9650°
argument of perigee: 270.3063°
revolutions per day: 14.11686916
mean anomaly at epoch: 89.6267°
orbit number at epoch: 89063

The dashed part of the orbit path shows where the satellite is in the earth's shadow,  

DLR